Time,TemperatureF,DewpointF,PressureIn,WindDirection,WindDirectionDegrees,WindSpeedMPH,WindSpeedGustMPH,Humidity,HourlyPrecipIn,Conditions,Clouds,dailyrainin,SolarRadiationWatts/m^2,SoftwareType,DateUTC
2013-07-22 00:11:00,83.0,38.0,-100.00,WSW,253,5.0,17.0,20,0.00,,,0.00,714.000000,,2013-07-22 00:11:00,
2013-07-22 00:22:00,83.0,38.0,-100.00,WSW,253,5.0,17.0,20,0.00,,,0.00,714.000000,,2013-07-22 00:22:00,
2013-07-22 00:32:00,83.0,38.0,-100.00,WSW,253,5.0,17.0,20,0.00,,,0.00,714.000000,,2013-07-22 00:32:00,
2013-07-22 00:42:00,83.0,38.0,-100.00,WSW,253,5.0,17.0,20,0.00,,,0.00,714.000000,,2013-07-22 00:42:00,
2013-07-22 00:50:00,81.0,40.0,-100.00,WSW,249,6.0,15.0,23,0.00,,,0.00,460.000000,,2013-07-22 00:50:00,
2013-07-22 01:11:00,81.0,40.0,-100.00,WSW,249,6.0,15.0,23,0.00,,,0.00,460.000000,,2013-07-22 01:11:00,
2013-07-22 01:22:00,81.0,40.0,-100.00,WSW,249,6.0,15.0,23,0.00,,,0.00,460.000000,,2013-07-22 01:22:00,
2013-07-22 01:32:00,81.0,40.0,-100.00,WSW,249,6.0,15.0,23,0.00,,,0.00,460.000000,,2013-07-22 01:32:00,
2013-07-22 01:42:00,81.0,40.0,-100.00,WSW,249,6.0,15.0,23,0.00,,,0.00,460.000000,,2013-07-22 01:42:00,
2013-07-22 01:50:00,76.0,41.0,-100.00,WSW,249,3.0,10.0,28,0.00,,,0.00,197.000000,,2013-07-22 01:50:00,
2013-07-22 02:11:00,76.0,41.0,-100.00,WSW,249,3.0,10.0,28,0.00,,,0.00,197.000000,,2013-07-22 02:11:00,
2013-07-22 02:22:00,76.0,41.0,-100.00,WSW,249,3.0,10.0,28,0.00,,,0.00,197.000000,,2013-07-22 02:22:00,
2013-07-22 02:32:00,76.0,41.0,-100.00,WSW,249,3.0,10.0,28,0.00,,,0.00,197.000000,,2013-07-22 02:32:00,
2013-07-22 02:43:00,76.0,41.0,-100.00,WSW,249,3.0,10.0,28,0.00,,,0.00,197.000000,,2013-07-22 02:43:00,
2013-07-22 02:50:00,70.0,39.0,-100.00,West,261,6.0,11.0,32,0.00,,,0.00,14.000000,,2013-07-22 02:50:00,
2013-07-22 03:12:00,70.0,39.0,-100.00,West,261,6.0,11.0,32,0.00,,,0.00,14.000000,,2013-07-22 03:12:00,
2013-07-22 03:22:00,70.0,39.0,-100.00,West,261,6.0,11.0,32,0.00,,,0.00,14.000000,,2013-07-22 03:22:00,
2013-07-22 03:33:00,70.0,39.0,-100.00,West,261,6.0,11.0,32,0.00,,,0.00,14.000000,,2013-07-22 03:33:00,
2013-07-22 03:43:00,70.0,39.0,-100.00,West,261,6.0,11.0,32,0.00,,,0.00,14.000000,,2013-07-22 03:43:00,
2013-07-22 04:22:00,67.0,41.0,-100.00,WSW,254,6.0,13.0,38,0.00,,,0.00,0.000000,,2013-07-22 04:22:00,
2013-07-22 04:33:00,67.0,41.0,-100.00,WSW,254,6.0,13.0,38,0.00,,,0.00,0.000000,,2013-07-22 04:33:00,
2013-07-22 04:43:00,67.0,41.0,-100.00,WSW,254,6.0,13.0,38,0.00,,,0.00,0.000000,,2013-07-22 04:43:00,
2013-07-22 04:50:00,67.0,39.0,-100.00,WSW,254,6.0,14.0,36,0.00,,,0.00,0.000000,,2013-07-22 04:50:00,
2013-07-22 05:11:00,67.0,39.0,-100.00,WSW,254,6.0,14.0,36,0.00,,,0.00,0.000000,,2013-07-22 05:11:00,
2013-07-22 05:22:00,67.0,39.0,-100.00,WSW,254,6.0,14.0,36,0.00,,,0.00,0.000000,,2013-07-22 05:22:00,
2013-07-22 05:32:00,67.0,39.0,-100.00,WSW,254,6.0,14.0,36,0.00,,,0.00,0.000000,,2013-07-22 05:32:00,
2013-07-22 05:42:00,67.0,39.0,-100.00,WSW,254,6.0,14.0,36,0.00,,,0.00,0.000000,,2013-07-22 05:42:00,
2013-07-22 05:50:00,66.0,40.0,-100.00,West,261,6.0,15.0,38,0.00,,,0.00,0.000000,,2013-07-22 05:50:00,
2013-07-22 06:22:00,66.0,40.0,-100.00,West,261,6.0,15.0,38,0.00,,,0.00,0.000000,,2013-07-22 06:22:00,
2013-07-22 06:33:00,66.0,40.0,-100.00,West,261,6.0,15.0,38,0.00,,,0.00,0.000000,,2013-07-22 06:33:00,
2013-07-22 06:43:00,66.0,40.0,-100.00,West,261,6.0,15.0,38,0.00,,,0.00,0.000000,,2013-07-22 06:43:00,
2013-07-22 06:50:00,66.0,42.0,-100.00,WSW,256,9.0,15.0,41,0.00,,,0.00,0.000000,,2013-07-22 06:50:00,
2013-07-22 07:12:00,66.0,42.0,-100.00,WSW,256,9.0,15.0,41,0.00,,,0.00,0.000000,,2013-07-22 07:12:00,
2013-07-22 07:22:00,66.0,42.0,-100.00,WSW,256,9.0,15.0,41,0.00,,,0.00,0.000000,,2013-07-22 07:22:00,
2013-07-22 07:33:00,66.0,42.0,-100.00,WSW,256,9.0,15.0,41,0.00,,,0.00,0.000000,,2013-07-22 07:33:00,
2013-07-22 07:43:00,66.0,42.0,-100.00,WSW,256,9.0,15.0,41,0.00,,,0.00,0.000000,,2013-07-22 07:43:00,
2013-07-22 07:50:00,66.0,43.0,-100.00,WSW,256,10.0,20.0,43,0.00,,,0.00,0.000000,,2013-07-22 07:50:00,
2013-07-22 08:11:00,66.0,43.0,-100.00,WSW,256,10.0,20.0,43,0.00,,,0.00,0.000000,,2013-07-22 08:11:00,
2013-07-22 08:22:00,66.0,43.0,-100.00,WSW,256,10.0,20.0,43,0.00,,,0.00,0.000000,,2013-07-22 08:22:00,
2013-07-22 08:32:00,66.0,43.0,-100.00,WSW,256,10.0,20.0,43,0.00,,,0.00,0.000000,,2013-07-22 08:32:00,
2013-07-22 08:43:00,66.0,43.0,-100.00,WSW,256,10.0,20.0,43,0.00,,,0.00,0.000000,,2013-07-22 08:43:00,
2013-07-22 08:50:00,64.0,42.0,-100.00,WSW,251,9.0,22.0,45,0.00,,,0.00,0.000000,,2013-07-22 08:50:00,
2013-07-22 09:22:00,64.0,42.0,-100.00,WSW,251,9.0,22.0,45,0.00,,,0.00,0.000000,,2013-07-22 09:22:00,
2013-07-22 09:33:00,64.0,42.0,-100.00,WSW,251,9.0,22.0,45,0.00,,,0.00,0.000000,,2013-07-22 09:33:00,
2013-07-22 09:42:00,64.0,42.0,-100.00,WSW,251,9.0,22.0,45,0.00,,,0.00,0.000000,,2013-07-22 09:42:00,
2013-07-22 09:50:00,63.0,43.0,-100.00,WSW,255,9.0,20.0,48,0.00,,,0.00,0.000000,,2013-07-22 09:50:00,
2013-07-22 10:11:00,63.0,43.0,-100.00,WSW,255,9.0,20.0,48,0.00,,,0.00,0.000000,,2013-07-22 10:11:00,
2013-07-22 10:22:00,63.0,43.0,-100.00,WSW,255,9.0,20.0,48,0.00,,,0.00,0.000000,,2013-07-22 10:22:00,
2013-07-22 10:32:00,63.0,43.0,-100.00,WSW,255,9.0,20.0,48,0.00,,,0.00,0.000000,,2013-07-22 10:32:00,
2013-07-22 10:43:00,63.0,43.0,-100.00,WSW,255,9.0,20.0,48,0.00,,,0.00,0.000000,,2013-07-22 10:43:00,
2013-07-22 10:50:00,63.0,44.0,-100.00,West,268,7.0,17.0,50,0.00,,,0.00,0.000000,,2013-07-22 10:50:00,
2013-07-22 11:11:00,63.0,44.0,-100.00,West,268,7.0,17.0,50,0.00,,,0.00,0.000000,,2013-07-22 11:11:00,
2013-07-22 11:23:00,63.0,44.0,-100.00,West,268,7.0,17.0,50,0.00,,,0.00,0.000000,,2013-07-22 11:23:00,
2013-07-22 11:32:00,63.0,44.0,-100.00,West,268,7.0,17.0,50,0.00,,,0.00,0.000000,,2013-07-22 11:32:00,
2013-07-22 11:43:00,63.0,44.0,-100.00,West,268,7.0,17.0,50,0.00,,,0.00,0.000000,,2013-07-22 11:43:00,
2013-07-22 11:50:00,61.0,44.0,-100.00,West,280,6.0,12.0,54,0.00,,,0.00,0.000000,,2013-07-22 11:50:00,
2013-07-22 12:11:00,61.0,44.0,-100.00,West,280,6.0,12.0,54,0.00,,,0.00,0.000000,,2013-07-22 12:11:00,
2013-07-22 12:22:00,61.0,44.0,-100.00,West,280,6.0,12.0,54,0.00,,,0.00,0.000000,,2013-07-22 12:22:00,
2013-07-22 12:32:00,61.0,44.0,-100.00,West,280,6.0,12.0,54,0.00,,,0.00,0.000000,,2013-07-22 12:32:00,
2013-07-22 12:43:00,61.0,44.0,-100.00,West,280,6.0,12.0,54,0.00,,,0.00,0.000000,,2013-07-22 12:43:00,
2013-07-22 12:50:00,61.0,45.0,-100.00,West,261,5.0,12.0,56,0.00,,,0.00,22.000000,,2013-07-22 12:50:00,
2013-07-22 13:11:00,61.0,45.0,-100.00,West,261,5.0,12.0,56,0.00,,,0.00,22.000000,,2013-07-22 13:11:00,
2013-07-22 13:22:00,61.0,45.0,-100.00,West,261,5.0,12.0,56,0.00,,,0.00,22.000000,,2013-07-22 13:22:00,
2013-07-22 13:32:00,61.0,45.0,-100.00,West,261,5.0,12.0,56,0.00,,,0.00,22.000000,,2013-07-22 13:32:00,
2013-07-22 13:43:00,61.0,45.0,-100.00,West,261,5.0,12.0,56,0.00,,,0.00,22.000000,,2013-07-22 13:43:00,
2013-07-22 13:50:00,66.0,48.0,-100.00,West,276,5.0,9.0,52,0.00,,,0.00,179.000000,,2013-07-22 13:50:00,
2013-07-22 14:11:00,66.0,48.0,-100.00,West,276,5.0,9.0,52,0.00,,,0.00,179.000000,,2013-07-22 14:11:00,
2013-07-22 14:22:00,66.0,48.0,-100.00,West,276,5.0,9.0,52,0.00,,,0.00,179.000000,,2013-07-22 14:22:00,
2013-07-22 14:32:00,66.0,48.0,-100.00,West,276,5.0,9.0,52,0.00,,,0.00,179.000000,,2013-07-22 14:32:00,
2013-07-22 14:43:00,66.0,48.0,-100.00,West,276,5.0,9.0,52,0.00,,,0.00,179.000000,,2013-07-22 14:43:00,
2013-07-22 14:50:00,72.0,49.0,-100.00,WSW,244,3.0,9.0,44,0.00,,,0.00,360.000000,,2013-07-22 14:50:00,
2013-07-22 15:22:00,72.0,49.0,-100.00,WSW,244,3.0,9.0,44,0.00,,,0.00,360.000000,,2013-07-22 15:22:00,
2013-07-22 15:33:00,72.0,49.0,-100.00,WSW,244,3.0,9.0,44,0.00,,,0.00,360.000000,,2013-07-22 15:33:00,
2013-07-22 15:43:00,72.0,49.0,-100.00,WSW,244,3.0,9.0,44,0.00,,,0.00,360.000000,,2013-07-22 15:43:00,
2013-07-22 15:50:00,78.0,45.0,-100.00,ESE,114,3.0,7.0,31,0.00,,,0.00,620.000000,,2013-07-22 15:50:00,
2013-07-22 16:11:00,78.0,45.0,-100.00,ESE,114,3.0,7.0,31,0.00,,,0.00,620.000000,,2013-07-22 16:11:00,
2013-07-22 16:21:00,78.0,45.0,-100.00,ESE,114,3.0,7.0,31,0.00,,,0.00,620.000000,,2013-07-22 16:21:00,
2013-07-22 16:32:00,78.0,45.0,-100.00,ESE,114,3.0,7.0,31,0.00,,,0.00,620.000000,,2013-07-22 16:32:00,
2013-07-22 16:43:00,78.0,45.0,-100.00,ESE,114,3.0,7.0,31,0.00,,,0.00,620.000000,,2013-07-22 16:43:00,
2013-07-22 16:50:00,80.0,42.0,-100.00,NE,42,3.0,8.0,26,0.00,,,0.00,818.000000,,2013-07-22 16:50:00,
2013-07-22 17:11:00,80.0,42.0,-100.00,NE,42,3.0,8.0,26,0.00,,,0.00,818.000000,,2013-07-22 17:11:00,
2013-07-22 17:23:00,80.0,42.0,-100.00,NE,42,3.0,8.0,26,0.00,,,0.00,818.000000,,2013-07-22 17:23:00,
2013-07-22 17:32:00,80.0,42.0,-100.00,NE,42,3.0,8.0,26,0.00,,,0.00,818.000000,,2013-07-22 17:32:00,
2013-07-22 17:43:00,80.0,42.0,-100.00,NE,42,3.0,8.0,26,0.00,,,0.00,818.000000,,2013-07-22 17:43:00,
2013-07-22 19:50:00,86.0,29.0,-100.00,NNE,32,8.0,18.0,13,0.00,,,0.00,1140.000000,,2013-07-22 19:50:00,
2013-07-22 20:22:00,86.0,29.0,-100.00,NNE,32,8.0,18.0,13,0.00,,,0.00,1140.000000,,2013-07-22 20:22:00,
2013-07-22 20:32:00,86.0,29.0,-100.00,NNE,32,8.0,18.0,13,0.00,,,0.00,1140.000000,,2013-07-22 20:32:00,
2013-07-22 20:43:00,86.0,29.0,-100.00,NNE,32,8.0,18.0,13,0.00,,,0.00,1140.000000,,2013-07-22 20:43:00,
2013-07-22 20:50:00,88.0,29.0,-100.00,NW,315,10.0,18.0,12,0.00,,,0.00,1120.000000,,2013-07-22 20:50:00,
2013-07-22 21:12:00,88.0,29.0,-100.00,NW,315,10.0,18.0,12,0.00,,,0.00,1120.000000,,2013-07-22 21:12:00,
2013-07-22 21:22:00,88.0,29.0,-100.00,NW,315,10.0,18.0,12,0.00,,,0.00,1120.000000,,2013-07-22 21:22:00,
2013-07-22 21:32:00,88.0,29.0,-100.00,NW,315,10.0,18.0,12,0.00,,,0.00,1120.000000,,2013-07-22 21:32:00,
2013-07-22 21:43:00,88.0,29.0,-100.00,NW,315,10.0,18.0,12,0.00,,,0.00,1120.000000,,2013-07-22 21:43:00,
2013-07-22 21:50:00,88.0,27.0,-100.00,North,358,4.0,18.0,11,0.00,,,0.00,1047.000000,,2013-07-22 21:50:00,
2013-07-22 22:11:00,88.0,27.0,-100.00,North,358,4.0,18.0,11,0.00,,,0.00,1047.000000,,2013-07-22 22:11:00,
2013-07-22 22:22:00,88.0,27.0,-100.00,North,358,4.0,18.0,11,0.00,,,0.00,1047.000000,,2013-07-22 22:22:00,
2013-07-22 22:32:00,88.0,27.0,-100.00,North,358,4.0,18.0,11,0.00,,,0.00,1047.000000,,2013-07-22 22:32:00,
2013-07-22 22:43:00,88.0,27.0,-100.00,North,358,4.0,18.0,11,0.00,,,0.00,1047.000000,,2013-07-22 22:43:00,
2013-07-22 22:50:00,88.0,29.0,-100.00,NNE,26,8.0,19.0,12,0.00,,,0.00,898.000000,,2013-07-22 22:50:00,
2013-07-22 23:11:00,88.0,29.0,-100.00,NNE,26,8.0,19.0,12,0.00,,,0.00,898.000000,,2013-07-22 23:11:00,
2013-07-22 23:22:00,88.0,29.0,-100.00,NNE,26,8.0,19.0,12,0.00,,,0.00,898.000000,,2013-07-22 23:22:00,
2013-07-22 23:32:00,88.0,29.0,-100.00,NNE,26,8.0,19.0,12,0.00,,,0.00,898.000000,,2013-07-22 23:32:00,
2013-07-22 23:42:00,88.0,29.0,-100.00,NNE,26,8.0,19.0,12,0.00,,,0.00,898.000000,,2013-07-22 23:42:00,
2013-07-22 23:50:00,86.0,27.0,-100.00,NE,48,8.0,20.0,12,0.00,,,0.00,705.000000,,2013-07-22 23:50:00,